ECMWFFLT1_850_spd_057.txt.gz
Wind_Speed
20 17 18 21 21 19 18 16 15 14 15 15 15 15 13 12 13 14 13 13 12 12 12 13 13 12 12 12 13 15 15 13 12 12 12 13 14 14 13 10 6 7 8 8 9 12 16 18 14 12 13 13 13 13 12 10 8 8 9 9 8 8 8
19 17 18 21 22 21 19 18 16 15 15 14 14 13 12 12 14 14 13 13 13 12 13 13 12 12 12 12 14 15 14 13 12 12 12 12 12 13 14 12 9 9 10 9 9 9 12 17 16 14 15 14 13 12 12 11 10 10 10 9 7 7 8
19 19 20 22 23 22 21 20 18 16 16 15 15 15 14 14 14 14 14 14 13 12 13 14 12 12 12 12 13 13 13 13 13 13 11 10 11 13 14 13 12 12 13 13 13 12 12 12 14 16 17 16 15 15 15 14 13 11 9 8 7 6 6
20 21 21 23 24 23 22 21 19 17 17 17 17 17 16 15 14 14 14 13 13 13 13 13 12 13 14 13 12 12 12 12 12 13 11 10 11 13 13 12 12 13 13 14 15 15 14 13 14 18 17 15 15 18 19 17 13 11 9 9 8 5 3
21 22 23 23 24 23 22 21 19 19 19 19 19 18 16 15 14 14 14 14 14 15 14 12 12 13 14 13 12 13 14 12 12 13 12 12 12 12 12 11 12 12 10 11 13 14 13 12 14 18 18 16 18 20 19 17 14 11 10 10 9 7 5
21 22 23 23 22 21 21 21 20 20 20 20 19 18 17 15 15 15 15 15 15 16 15 14 13 12 13 13 13 13 14 13 12 12 12 12 12 12 11 11 12 12 11 12 13 13 13 11 13 18 18 17 19 21 19 17 15 14 12 11 10 10 10
23 23 23 23 21 21 21 22 21 21 20 20 19 18 16 15 14 15 15 15 15 16 15 14 13 12 12 12 12 13 13 12 12 11 11 11 11 12 12 12 12 11 11 13 13 13 15 14 15 17 18 18 18 20 20 18 17 16 14 13 11 9 9
25 24 23 22 21 22 22 22 22 21 19 19 18 17 17 16 14 15 15 14 14 15 14 13 12 11 11 11 11 11 12 12 11 11 11 11 10 11 12 12 12 12 13 14 13 13 14 13 13 15 19 22 21 20 21 20 17 15 15 15 12 8 6
25 25 25 23 22 22 21 21 21 20 18 17 16 16 16 15 14 15 15 13 13 14 13 13 12 11 10 10 10 10 10 10 11 11 11 11 10 11 12 13 12 13 14 14 12 13 15 14 14 16 19 24 26 24 23 21 18 16 16 17 14 11 9
26 26 26 25 24 23 22 20 19 19 17 15 15 16 16 16 16 17 16 14 14 13 13 13 13 12 11 10 10 9 10 10 9 10 11 11 11 10 11 12 12 13 14 14 13 13 16 17 18 19 19 20 24 26 26 23 22 21 20 18 14 13 12
26 25 26 26 26 25 23 21 19 18 16 14 15 15 15 17 18 18 17 16 14 13 13 13 12 12 11 11 11 9 9 9 8 9 10 11 12 10 10 11 12 13 13 13 14 14 17 21 21 22 20 19 19 22 24 24 23 21 20 20 16 12 10
27 25 26 27 27 26 25 23 21 18 16 15 15 14 16 17 17 17 17 16 14 13 14 13 11 10 9 10 12 10 9 9 9 9 10 10 11 10 11 11 12 12 12 13 14 13 16 21 23 23 21 20 19 19 20 21 22 22 19 19 18 13 9
28 26 27 28 27 26 26 25 22 19 17 17 15 14 15 17 17 16 16 14 13 14 15 15 11 9 7 9 11 10 9 10 10 10 10 10 10 10 10 11 11 10 10 12 14 13 14 18 22 25 22 21 18 15 18 20 20 22 20 16 15 13 10
28 27 28 29 28 27 26 25 23 20 18 18 16 15 15 17 17 16 13 12 13 13 14 14 11 8 7 9 10 9 10 10 10 10 9 10 10 9 9 10 10 8 9 12 13 14 15 16 21 26 24 23 18 11 14 21 20 20 21 17 15 13 11
28 28 29 30 30 29 28 26 23 21 20 18 15 14 15 16 15 13 11 12 13 11 11 12 11 7 6 7 9 9 9 10 10 8 6 7 9 9 9 10 9 8 9 11 13 13 15 16 20 26 25 24 21 12 10 18 21 19 20 19 16 15 13
29 28 30 32 32 31 29 26 23 22 20 17 15 14 15 16 15 11 11 12 12 9 7 9 11 9 5 6 10 11 9 9 9 7 3 4 7 7 8 11 10 9 10 11 12 13 15 17 19 23 24 22 22 17 10 12 18 18 19 19 18 17 16
29 30 32 33 33 32 29 25 24 22 18 16 16 15 16 17 16 12 12 13 12 8 6 9 12 9 6 8 12 12 9 8 9 7 3 5 7 6 6 9 8 9 12 12 13 13 15 17 18 20 23 20 20 20 13 10 13 15 17 20 19 18 16
31 33 34 34 34 33 30 26 24 21 18 17 18 16 16 18 16 13 13 13 13 8 6 11 13 9 7 10 11 10 8 8 9 8 5 5 8 7 4 3 5 8 12 12 13 14 13 15 17 18 21 19 18 18 14 12 12 14 17 20 19 17 15
34 36 35 33 33 33 30 27 25 21 19 21 20 17 17 20 18 15 13 13 13 9 7 12 14 10 9 10 9 9 10 9 8 8 7 5 6 5 2 0 3 6 9 11 13 14 13 13 15 16 18 18 15 13 13 13 13 16 18 18 16 17 15
36 36 34 31 31 31 29 26 24 21 22 22 20 17 17 19 19 17 15 14 13 9 9 13 13 10 11 11 9 9 11 10 8 7 8 7 5 4 1 1 3 4 6 9 13 14 12 13 13 14 16 16 13 11 12 13 14 17 18 16 16 17 15
35 31 31 30 29 29 27 25 24 23 24 22 19 18 18 19 19 18 16 14 12 10 11 13 12 10 11 11 11 10 11 11 9 8 8 7 5 4 2 1 1 4 7 9 12 14 12 12 13 15 17 15 11 11 13 14 16 18 17 14 15 17 16
34 29 31 31 28 28 27 25 24 24 23 21 18 18 19 20 20 18 16 14 12 12 13 12 11 11 10 11 11 11 12 11 9 9 7 4 3 2 2 1 2 3 7 8 12 15 13 12 15 16 16 12 9 12 16 17 16 16 16 15 13 15 17
33 30 32 31 28 27 27 26 24 22 21 20 19 18 20 21 20 18 16 15 14 14 13 12 12 11 10 11 11 11 13 11 8 8 6 4 3 2 2 2 3 3 5 8 11 15 14 14 16 15 12 11 10 12 17 18 14 12 16 16 14 16 18
34 30 30 29 28 29 29 27 24 22 21 22 21 19 20 21 20 18 17 16 15 15 14 12 13 12 10 11 12 11 12 12 9 7 6 5 5 3 2 1 3 3 3 7 9 13 15 16 16 14 11 11 11 12 15 17 14 13 16 15 13 13 15
34 30 29 30 31 31 30 28 26 23 24 24 21 20 20 19 18 18 18 17 14 14 13 13 13 13 11 11 12 11 11 12 10 7 6 5 4 3 2 1 2 2 3 6 8 10 14 16 16 13 11 11 11 12 15 16 15 14 16 15 13 11 10
32 30 30 31 32 31 30 28 26 24 24 23 21 20 20 18 17 17 17 15 13 12 12 12 13 14 12 12 12 11 10 11 10 8 5 3 4 4 4 2 1 3 5 7 7 9 11 13 13 13 13 12 11 12 13 14 14 14 15 16 17 15 13
30 32 32 32 31 31 30 28 26 25 24 23 21 21 20 18 17 16 15 12 11 11 11 12 13 14 14 14 14 12 10 10 10 8 7 6 7 8 7 5 4 4 4 5 6 8 10 9 10 11 12 12 12 11 11 12 13 14 15 16 17 18 17
30 32 32 31 29 29 27 26 27 26 23 20 21 21 19 18 17 15 13 11 11 12 12 12 12 13 15 16 16 14 12 11 10 9 10 9 8 8 8 8 6 5 4 4 5 7 8 8 8 9 10 11 11 11 12 12 13 14 15 16 17 18 19
32 30 30 29 27 25 24 24 25 24 21 21 23 22 20 18 16 14 13 12 12 13 13 12 12 12 12 14 16 16 13 11 10 9 9 9 8 8 8 7 6 5 5 5 5 6 7 7 8 8 9 9 10 11 13 14 14 15 15 16 17 19 20
31 30 29 28 26 25 24 24 24 23 23 23 23 22 20 18 16 14 14 14 13 13 12 13 13 12 11 11 14 14 12 11 10 9 9 8 8 9 9 8 7 7 6 6 6 7 8 9 9 10 10 10 11 12 13 14 15 15 15 17 17 18 20
30 29 27 27 27 26 26 26 25 24 26 26 23 20 17 14 13 13 13 13 13 13 13 13 12 12 11 11 12 11 10 11 11 9 9 9 8 9 9 9 9 9 9 9 9 9 10 11 12 12 13 14 14 15 16 16 17 18 18 18 19 19 20
27 27 26 26 26 26 26 26 24 23 23 23 20 15 11 10 11 12 13 14 14 13 12 12 12 12 12 11 12 11 10 9 10 9 9 10 10 10 9 9 10 10 10 10 10 10 11 12 13 14 15 16 17 18 18 18 19 20 21 22 22 23 24
20 21 21 20 20 19 19 19 19 19 18 15 12 9 8 9 11 11 12 14 13 11 10 11 11 11 11 11 12 12 12 11 10 10 10 10 10 10 10 10 10 10 10 10 11 11 12 12 13 14 15 16 17 18 19 19 20 21 22 23 24 26 26
17 18 17 15 14 14 13 13 14 15 15 12 9 8 8 9 11 12 12 12 10 9 9 9 10 10 10 11 11 11 12 11 9 9 9 9 9 9 10 10 10 11 11 12 12 12 13 13 14 15 16 18 19 20 21 22 23 23 24 24 25 26 27
18 19 19 17 16 16 14 12 11 13 14 15 13 12 11 11 11 12 12 10 8 8 7 6 8 9 9 10 10 9 9 8 8 8 9 10 10 11 12 12 12 12 13 13 14 15 16 17 17 18 19 19 20 20 21 21 22 22 22 22 22 23 23
21 20 19 19 20 21 20 18 17 16 14 13 13 13 12 12 11 11 10 8 6 4 3 3 5 7 6 7 7 8 8 8 9 9 10 9 9 10 12 12 12 13 14 14 15 15 15 16 16 16 16 16 16 15 15 15 16 16 16 17 17 17 18
20 20 19 19 21 22 21 20 21 21 20 18 17 17 15 13 11 10 9 6 4 4 3 3 2 2 1 2 4 5 6 7 7 7 7 7 7 7 9 10 10 10 11 10 10 10 9 10 10 11 11 11 12 12 12 11 11 12 12 13 14 15 16

ECMWFFLT1_850_spd_060.txt.gz
Wind_Speed
21 19 21 24 23 23 23 22 23 24 25 24 22 21 21 20 19 19 18 16 13 14 16 16 16 17 17 17 17 16 16 16 16 14 15 16 16 15 14 12 10 7 8 10 9 11 14 16 15 13 13 13 13 12 10 10 8 8 9 9 8 8 8
20 18 19 23 24 23 23 22 22 24 25 24 22 21 20 19 18 18 18 16 15 16 17 17 17 18 18 18 18 18 17 17 16 13 14 15 15 14 14 14 10 8 10 11 10 11 13 17 18 16 16 16 15 13 12 11 10 9 9 9 9 9 8
22 21 21 23 25 23 22 23 22 24 25 23 21 20 19 18 18 18 18 17 17 18 18 18 18 18 18 17 18 19 18 17 17 15 14 14 14 14 14 15 13 11 13 14 13 13 14 15 17 18 19 18 18 16 13 13 12 12 10 10 9 8 7
24 24 24 25 26 25 25 25 24 24 24 22 20 19 19 18 18 18 18 18 18 18 18 19 19 18 17 17 17 17 18 17 17 16 15 14 14 15 15 16 15 13 12 12 13 14 15 15 15 18 20 18 18 16 15 15 14 12 11 9 7 5 5
25 26 26 26 27 27 27 27 25 23 23 22 20 20 21 20 19 18 18 19 18 17 18 19 18 17 17 17 16 16 18 18 16 16 17 16 15 16 16 16 15 14 11 10 11 12 13 13 13 17 21 19 18 17 16 16 15 12 10 8 6 4 4
25 26 26 26 27 28 27 27 26 24 22 22 21 23 22 19 18 18 18 19 18 18 18 18 17 17 17 17 16 17 18 18 16 16 17 16 15 15 15 16 15 14 12 11 11 11 12 12 12 15 20 19 19 20 18 17 15 13 11 8 5 4 4
25 25 26 26 27 27 27 27 26 25 23 23 23 23 20 18 18 17 17 18 18 19 19 18 16 16 16 16 16 17 18 18 16 16 17 16 14 14 14 15 14 13 12 12 12 13 14 13 13 16 20 20 20 21 20 17 15 14 13 11 8 6 5
24 24 26 26 26 27 27 26 26 25 23 23 23 21 19 19 18 17 17 17 18 19 19 18 16 15 16 17 16 16 17 17 16 16 16 15 14 15 15 14 13 13 13 13 13 13 14 13 13 16 20 22 23 22 19 17 16 14 13 12 11 9 6
25 23 25 27 27 27 27 26 26 24 23 23 22 21 19 18 18 18 18 18 19 19 18 17 16 15 16 17 16 16 16 17 17 16 16 15 14 15 16 15 14 13 13 14 14 14 13 14 14 16 19 22 24 24 21 19 18 17 15 13 11 10 7
25 23 25 27 27 27 28 26 25 24 23 23 22 20 20 19 19 19 19 19 20 20 18 16 16 16 16 16 16 16 16 17 17 16 16 15 14 15 15 15 14 14 14 14 15 15 14 14 15 16 19 20 20 22 23 24 22 20 18 15 12 10 9
26 25 25 27 29 29 29 28 27 26 24 23 22 21 21 20 19 19 20 20 20 20 18 17 16 16 16 17 16 17 17 17 17 17 16 14 15 15 15 15 15 14 15 15 16 16 15 16 16 16 18 21 21 17 16 21 24 21 18 16 13 11 9
27 27 27 29 31 31 32 31 30 28 25 23 21 21 21 21 19 19 20 20 19 19 18 18 17 16 16 16 16 17 17 16 16 16 16 15 15 16 15 16 16 15 15 16 17 16 16 17 17 16 18 20 22 18 12 14 20 20 17 15 12 11 10
27 28 28 31 33 33 33 33 31 28 25 22 20 20 21 20 20 21 21 19 18 18 18 18 18 17 15 15 15 16 16 16 16 16 15 15 15 16 15 15 16 15 15 15 16 16 16 18 18 18 20 20 21 20 15 13 16 16 15 15 12 11 11
27 27 29 33 34 32 30 30 29 27 25 22 20 21 21 21 22 22 21 19 16 17 19 19 19 16 14 13 14 15 15 15 15 14 15 15 14 15 15 14 15 14 14 15 16 17 17 19 21 21 22 22 21 22 20 17 17 16 14 15 14 13 13
27 27 30 33 32 29 28 29 29 27 25 23 22 21 21 22 23 23 21 18 16 17 18 18 17 15 13 13 15 16 15 14 15 14 14 14 13 13 13 14 14 13 13 15 16 17 17 20 23 25 25 24 21 21 19 19 20 20 17 14 14 15 16
27 27 29 31 31 29 29 30 30 28 25 23 22 20 20 22 23 22 20 18 17 19 19 17 16 14 12 14 16 16 15 14 14 14 13 12 12 12 13 13 13 12 13 14 15 16 16 18 22 25 26 26 22 19 17 19 22 23 21 17 14 15 17
27 27 28 29 29 28 28 29 29 27 24 23 21 18 19 21 22 20 18 19 19 20 19 18 16 13 12 14 16 15 15 15 14 12 10 10 11 12 12 13 12 12 13 13 14 15 16 17 20 22 24 26 25 20 16 15 18 22 22 18 15 14 16
26 26 27 28 28 26 26 26 28 27 24 22 20 18 20 21 21 19 19 20 19 17 17 19 17 13 12 14 15 15 15 16 14 11 9 10 11 9 9 10 10 11 12 13 14 16 16 17 18 20 22 24 24 21 17 14 14 17 18 17 15 15 16
25 26 28 29 27 26 26 26 27 27 24 21 19 20 22 22 20 20 20 20 18 14 16 19 17 14 15 16 16 15 15 15 13 12 10 10 10 8 6 6 8 9 12 14 15 16 16 17 18 19 21 23 24 22 20 17 14 14 15 15 15 15 16
26 27 30 30 28 26 27 27 27 27 23 21 20 22 24 21 20 21 20 20 18 14 16 20 18 16 18 18 16 14 15 14 13 13 11 9 10 9 5 5 6 8 10 12 14 15 16 17 18 19 20 23 25 23 21 19 17 15 15 16 16 16 16
28 29 30 30 29 28 29 29 28 26 22 21 22 24 25 22 21 21 20 21 19 15 16 20 18 17 18 17 16 15 15 14 13 13 11 9 9 8 6 4 5 7 9 11 14 15 16 17 17 18 19 20 22 21 19 19 19 17 16 18 18 16 16
29 29 31 31 30 30 31 30 28 25 23 23 24 26 26 23 22 22 21 22 19 15 17 20 18 17 18 16 16 16 15 14 14 13 12 11 9 7 6 4 4 7 9 10 13 15 15 16 16 17 17 17 18 19 18 18 19 18 18 19 19 17 17
30 31 32 32 31 32 31 30 28 27 27 26 26 28 27 24 22 21 22 22 18 15 18 20 17 17 17 17 17 17 17 15 15 14 13 13 10 7 7 4 3 6 8 9 12 15 15 15 15 14 14 16 17 16 15 17 19 18 17 18 18 18 18
31 33 33 31 32 32 31 29 29 31 32 30 28 29 29 26 23 21 22 22 17 16 19 19 17 17 17 17 17 18 18 17 16 13 13 13 10 8 8 6 4 6 9 10 12 14 14 13 12 11 11 14 14 11 11 15 17 17 18 19 19 20 19
29 34 34 31 32 34 33 31 31 33 35 33 31 30 29 28 25 21 22 21 18 18 19 18 17 17 18 17 17 17 18 17 15 13 11 11 10 9 9 7 3 5 9 10 10 11 12 12 10 9 10 11 11 8 9 12 15 15 16 18 19 19 18
27 34 34 31 32 36 35 32 31 34 34 33 32 30 28 28 25 22 22 21 20 20 19 18 17 17 17 18 17 17 17 16 15 12 11 11 11 11 10 7 4 5 8 10 9 8 10 12 10 10 12 13 11 11 11 13 14 14 13 14 14 13 12
26 34 35 33 35 37 36 34 33 34 34 31 31 30 27 27 25 22 22 21 21 20 19 18 17 16 17 18 17 16 16 16 15 14 13 14 13 12 10 8 5 6 8 9 8 7 9 11 11 11 13 13 12 11 11 11 13 13 13 13 13 12 12
25 32 34 35 38 38 36 36 35 34 34 32 31 30 27 25 24 22 22 21 20 19 18 17 18 17 17 18 17 16 16 15 15 15 15 15 14 13 11 10 8 8 9 9 8 8 9 9 10 10 11 12 12 13 13 12 12 13 14 14 15 15 15
23 29 32 34 36 36 35 36 36 34 34 33 31 29 27 25 24 23 21 18 17 17 18 18 19 19 19 18 17 17 16 15 16 16 16 16 15 14 13 12 11 10 10 10 9 10 10 10 9 9 9 9 11 13 14 14 14 14 15 16 17 18 18
21 26 30 32 34 35 35 34 35 35 34 32 30 29 27 25 24 22 20 17 15 16 18 19 19 20 20 20 18 18 18 17 16 16 16 16 16 15 14 12 12 11 10 9 9 10 10 10 9 9 9 9 9 10 11 12 13 13 14 16 17 18 20
20 25 30 32 32 34 34 33 34 34 34 32 30 29 27 26 24 21 19 18 16 17 18 18 17 18 20 20 19 18 17 17 16 15 15 15 14 14 14 13 12 11 11 10 10 10 10 10 10 10 10 10 11 12 12 13 14 15 16 17 18 19 20
20 24 30 33 32 31 31 30 29 30 31 32 31 29 28 26 24 22 21 20 19 18 19 19 17 17 18 18 18 18 17 16 16 15 14 14 14 14 14 13 12 11 11 11 11 11 11 12 13 13 14 14 15 15 16 17 18 18 19 20 21 22 22
19 23 27 31 32 30 29 27 27 27 28 29 29 28 27 26 25 24 23 22 21 19 19 20 19 17 17 16 16 16 15 15 15 16 15 15 15 14 14 13 12 11 10 11 11 11 12 13 13 14 15 16 17 17 18 19 19 20 20 21 22 23 24
15 21 24 25 27 27 26 25 25 24 24 24 25 25 24 24 25 24 22 21 21 20 19 19 18 18 17 16 15 14 14 13 14 15 15 15 15 14 13 12 11 11 10 10 10 11 12 12 13 14 15 16 17 17 17 18 19 20 21 21 22 23 23
10 15 19 20 22 23 22 21 20 20 20 20 21 21 20 20 21 21 20 19 18 18 17 16 16 15 15 14 14 13 13 14 15 15 15 15 14 13 12 11 11 11 11 11 12 13 13 14 15 15 16 16 17 17 17 18 18 18 19 19 19 19 20
11 13 15 16 19 21 21 20 19 18 18 18 19 20 19 17 17 17 16 15 14 13 12 12 12 11 11 12 12 10 10 12 13 13 13 14 13 11 10 11 12 12 13 13 14 14 14 14 14 14 14 14 14 14 14 15 15 14 14 14 15 16 17
16 16 16 16 18 21 22 21 20 18 17 16 17 19 18 16 15 15 15 14 13 10 8 7 5 5 7 9 9 8 8 8 7 7 7 8 8 8 9 10 11 11 11 10 10 10 10 10 10 10 10 10 10 10 11 11 11 11 12 12 13 14 15

ECMWFFLT1_850_spd_063.txt.gz
Wind_Speed
22 19 16 17 20 21 21 21 22 23 24 25 24 24 24 23 24 24 23 23 23 22 21 20 19 18 17 17 16 15 14 14 13 11 12 13 15 15 14 13 11 9 7 7 8 8 9 13 13 12 12 12 12 11 10 10 9 7 6 5 5 5 5
21 18 16 18 20 21 22 22 23 24 24 24 24 25 24 24 24 23 23 23 22 21 20 19 18 18 18 18 17 16 15 14 13 12 12 14 15 15 14 14 13 11 9 8 9 9 8 11 13 14 15 14 13 12 10 10 9 8 7 6 7 7 6
23 21 20 20 22 23 23 23 24 23 23 24 25 24 23 23 23 23 22 22 22 20 19 18 18 18 18 18 17 16 15 14 14 14 14 14 14 15 15 14 14 13 10 10 11 10 10 10 11 14 17 16 15 14 12 11 10 9 9 8 9 9 7
25 24 23 22 22 24 25 24 24 24 24 25 26 24 23 23 23 22 21 21 21 20 19 18 19 19 19 19 18 17 16 16 16 15 15 14 14 15 16 15 14 13 10 9 8 9 11 12 10 13 17 17 15 14 13 11 10 10 10 10 10 8 6
25 25 25 23 23 23 25 25 25 26 26 26 26 24 23 23 23 22 21 22 22 21 20 19 20 20 19 19 19 18 17 18 17 16 16 16 15 15 17 16 14 13 12 9 7 8 10 10 10 11 14 16 15 14 13 12 12 12 11 10 9 7 6
25 24 25 24 23 22 22 25 26 27 27 26 24 23 24 24 24 24 23 23 23 22 21 20 21 21 20 19 19 18 18 18 18 18 17 17 16 15 16 16 15 14 13 11 8 8 10 10 10 10 12 15 16 15 14 13 14 14 12 11 9 8 7
25 24 24 24 23 22 21 24 26 27 27 25 25 24 24 23 23 23 23 23 23 22 21 21 21 21 20 19 19 19 19 18 18 18 17 17 16 15 15 15 15 14 13 12 10 10 10 11 10 10 12 16 16 14 14 15 16 16 14 12 11 9 7
26 24 24 23 23 23 23 24 26 27 26 25 25 25 24 24 24 22 21 22 23 22 21 20 21 21 20 19 19 19 19 18 18 18 17 17 17 16 14 15 14 13 13 12 12 11 11 11 10 9 12 17 18 15 15 16 17 17 14 12 11 10 8
27 25 24 23 24 25 24 25 26 27 27 26 25 26 25 24 24 22 21 22 23 23 21 21 21 21 21 20 20 20 19 18 18 18 18 17 17 16 15 15 14 13 13 13 12 12 12 11 11 10 11 16 18 17 18 19 19 18 15 13 11 10 8
28 26 24 23 23 24 25 25 27 28 29 28 26 26 26 25 23 22 21 22 23 23 22 21 21 21 20 20 20 19 18 18 19 19 18 16 16 16 16 16 15 13 12 13 13 13 12 12 12 12 11 14 16 16 17 19 20 19 17 14 12 9 8
27 26 25 23 22 24 25 25 27 29 30 29 27 26 26 25 24 23 22 22 23 23 23 22 21 20 19 19 20 19 18 18 19 19 18 16 16 16 16 16 15 14 13 14 14 14 14 13 13 13 12 13 16 16 15 14 15 17 17 14 12 10 9
26 26 25 23 22 24 25 26 26 26 27 27 26 26 26 25 24 23 22 23 23 23 23 22 20 19 18 18 19 19 18 18 19 19 18 17 16 16 15 15 15 15 14 14 15 15 15 14 13 13 13 14 16 17 17 14 11 12 14 12 10 10 9
27 26 26 23 22 24 25 25 24 24 24 25 25 25 26 26 24 22 23 23 23 24 23 22 20 19 19 18 18 18 19 19 19 18 18 17 17 16 16 15 15 15 15 14 15 16 16 15 14 15 14 15 16 17 19 17 11 8 10 10 9 9 9
25 26 27 22 19 22 23 22 22 22 23 24 25 25 26 26 24 22 23 24 23 23 23 22 21 20 20 19 19 19 19 19 19 18 18 18 18 17 17 16 15 14 15 15 15 16 16 15 15 16 16 16 17 17 18 18 13 9 8 9 9 9 9
22 23 26 22 19 21 21 21 22 22 22 24 25 25 27 27 25 23 23 23 23 23 23 23 22 21 21 20 20 20 19 19 19 19 19 18 18 18 17 17 16 14 15 16 15 17 17 16 16 17 17 17 17 17 17 17 15 12 10 10 10 9 10
20 20 22 22 22 22 21 22 23 23 23 24 25 25 27 28 25 23 23 23 23 23 23 23 23 22 22 21 20 20 20 19 19 19 18 17 16 16 17 17 16 15 16 15 16 17 18 17 17 17 18 18 17 17 17 17 17 15 14 13 13 11 10
20 19 19 20 21 22 20 21 23 23 24 25 25 25 26 27 25 23 23 23 22 22 22 23 23 22 22 20 20 20 20 19 18 18 17 15 15 15 15 15 16 15 15 15 16 17 17 17 18 19 19 20 20 20 18 18 17 16 16 16 15 14 12
18 19 19 19 20 21 22 23 24 24 25 26 25 24 25 26 25 24 25 24 21 20 21 22 22 21 20 18 18 19 18 18 17 16 15 14 13 14 13 14 14 14 14 14 15 17 17 18 18 19 19 21 22 22 20 19 18 17 17 18 17 16 15
16 19 21 20 18 21 23 25 25 26 27 27 25 23 24 25 25 25 25 23 21 20 21 21 20 19 17 17 17 17 17 17 16 15 14 14 13 13 12 12 12 12 12 13 14 16 17 17 17 17 18 19 21 22 21 21 19 16 15 15 15 16 16
14 17 21 21 19 20 24 25 26 27 28 28 26 23 24 25 26 26 24 22 21 22 22 21 19 18 17 16 17 18 17 17 16 15 14 14 13 12 10 9 9 9 11 11 13 14 15 16 16 16 16 17 19 20 22 23 21 17 14 13 14 15 15
13 15 18 21 21 22 23 24 26 28 29 29 27 25 26 28 27 26 25 23 23 22 22 22 20 19 17 16 18 18 17 18 18 16 14 13 13 11 9 8 7 8 9 11 12 14 15 15 16 16 17 17 17 18 21 23 24 20 15 14 16 16 14
15 14 15 18 21 23 22 24 26 29 30 30 28 26 26 28 27 26 26 25 23 21 20 21 21 19 18 18 18 18 16 17 17 15 14 13 13 12 10 9 8 8 9 11 13 14 15 15 16 17 18 17 17 18 20 23 26 23 18 15 16 17 17
14 14 15 17 20 22 22 24 26 29 32 31 29 26 26 27 26 26 26 25 23 19 19 21 21 20 19 19 19 18 16 16 16 15 14 13 13 13 11 9 9 9 11 12 13 14 15 15 16 18 17 16 17 18 18 21 25 25 20 18 17 18 18
13 14 16 16 20 23 23 25 27 30 34 33 30 28 29 30 28 27 26 25 23 20 20 22 21 20 20 19 18 18 17 16 15 15 14 13 13 12 11 10 9 9 10 11 11 12 13 14 15 16 16 15 16 15 14 16 20 20 20 20 20 20 19
15 14 15 15 20 25 26 26 28 33 37 36 33 31 31 31 30 29 27 26 24 21 20 23 22 19 19 18 17 17 16 16 16 15 15 14 14 12 10 10 9 8 9 10 10 11 13 13 13 14 13 12 13 14 14 14 16 16 17 18 20 19 16
18 15 16 15 19 26 29 29 32 37 38 37 34 32 33 33 32 31 29 28 25 21 20 23 22 19 19 18 17 17 17 17 17 16 16 15 14 12 11 10 8 7 9 10 10 10 12 12 12 12 12 11 12 13 13 13 15 15 14 14 14 15 15
19 15 16 17 20 27 32 33 36 39 38 38 36 34 35 36 34 32 31 30 26 22 21 23 21 20 20 19 19 19 18 18 19 18 17 15 14 13 13 11 8 6 8 11 10 11 13 13 13 13 13 12 12 12 11 11 12 12 12 12 13 13 14
14 12 15 20 25 31 35 35 38 40 38 40 40 39 38 37 34 33 33 30 27 23 22 23 22 20 20 20 20 20 19 19 19 18 17 17 16 15 14 12 8 6 8 11 11 11 13 15 15 14 13 13 13 12 11 11 11 11 11 11 11 12 14
11 8 13 19 26 33 39 38 40 43 42 41 42 42 39 36 34 34 32 30 27 24 24 24 22 21 21 21 21 20 19 19 19 18 18 18 18 17 16 12 9 8 9 10 11 11 12 14 14 13 13 14 13 12 12 11 11 11 12 12 12 12 13
11 3 8 15 19 26 36 41 40 39 39 39 40 41 38 36 35 34 32 29 27 26 26 25 22 21 21 20 21 21 20 19 18 19 19 20 20 19 17 14 11 10 9 10 11 11 11 10 10 10 10 11 11 11 11 12 13 13 14 14 15 14 14
16 4 6 11 13 17 28 38 38 34 35 37 39 39 37 36 35 33 31 29 27 27 27 24 22 21 20 19 19 21 20 19 18 20 21 21 21 20 18 16 13 12 11 11 11 12 11 11 10 9 8 8 8 8 8 10 11 11 12 13 14 14 14
22 11 5 11 10 12 21 33 35 34 35 36 37 37 36 35 35 32 30 29 27 26 25 24 23 22 20 19 18 19 19 19 19 20 22 22 22 21 19 17 16 15 13 13 12 12 12 12 12 11 10 9 8 8 8 8 9 10 11 12 12 14 15
24 19 11 11 13 13 20 29 34 35 36 35 34 34 33 33 32 30 28 26 24 23 23 23 23 22 21 20 18 18 18 19 19 20 21 21 21 20 19 18 17 16 15 14 14 13 13 13 12 12 12 11 11 11 11 11 11 11 12 13 13 15 15
20 21 18 14 14 15 19 26 31 33 34 33 33 31 29 29 29 28 25 24 23 22 21 22 21 20 19 19 19 19 20 19 20 21 21 21 21 20 19 18 17 17 16 15 15 15 14 13 13 13 13 13 13 13 13 13 14 14 15 15 16 17 18
16 15 15 15 16 16 16 20 24 26 27 29 29 29 26 26 27 27 26 25 24 24 23 23 22 21 20 19 20 21 21 21 21 21 21 21 20 19 18 16 16 16 16 15 14 13 13 13 12 12 13 13 13 14 15 15 16 17 17 18 18 18 18
15 14 12 10 12 16 17 18 19 19 19 20 22 23 22 22 23 24 25 24 24 24 24 24 24 24 23 22 22 22 22 22 21 18 17 17 17 15 15 14 14 14 13 12 11 11 11 12 13 13 13 13 13 13 14 14 15 15 16 15 15 15 15
15 15 13 11 9 10 14 18 21 20 18 17 18 19 18 17 18 19 20 20 20 21 21 21 21 22 22 21 20 20 19 18 18 15 13 12 10 8 9 10 10 10 9 8 9 10 11 11 11 11 10 10 10 10 10 10 10 10 10 11 11 11 11

ECMWFFLT1_850_spd_069.txt.gz
Wind_Speed
22 22 21 22 24 23 22 22 22 23 25 28 30 28 25 26 27 28 28 28 28 28 26 23 22 21 21 20 19 20 21 21 20 18 15 15 16 16 17 16 15 11 7 6 6 7 9 10 11 11 12 13 13 13 12 11 10 9 8 7 7 6 5
19 20 21 22 23 21 19 19 20 20 21 24 26 25 25 25 26 28 29 29 29 28 26 24 22 21 21 20 20 21 22 21 20 18 16 16 15 15 16 16 16 15 12 8 7 7 9 9 11 12 13 14 13 13 13 13 13 11 9 9 8 7 7
16 19 20 21 20 18 17 16 16 16 16 19 21 22 23 24 26 27 28 29 29 27 25 23 22 21 20 20 21 22 21 20 19 17 16 16 15 14 15 16 17 16 15 12 9 9 10 9 8 10 11 13 12 12 15 15 14 12 10 9 9 8 8
17 19 19 19 18 15 15 15 13 12 11 12 16 18 20 22 25 26 28 29 28 26 24 22 22 21 21 21 22 21 21 20 18 17 16 16 16 15 15 16 17 16 14 12 8 7 9 8 7 8 9 11 11 11 15 17 14 13 12 10 10 9 10
17 18 19 19 16 13 11 12 13 12 11 12 14 17 19 20 23 25 27 28 27 26 24 21 21 21 21 22 22 22 22 20 19 18 17 17 18 17 16 17 17 15 13 12 9 6 6 7 6 8 8 10 10 9 14 17 15 12 12 11 11 11 11
18 18 18 18 16 13 9 10 12 11 12 14 15 16 18 18 21 24 25 25 25 24 22 21 22 22 22 23 23 23 23 21 20 19 18 18 18 18 18 17 16 16 13 12 11 8 7 6 6 8 8 9 10 9 11 15 14 12 13 13 12 12 13
17 16 15 14 13 13 10 10 11 10 11 13 13 14 15 16 19 22 24 24 24 23 23 23 23 23 24 25 25 24 24 22 20 20 19 18 18 19 18 17 17 18 16 14 12 10 9 7 6 8 9 8 9 9 10 11 11 12 14 15 14 14 14
14 13 12 10 9 11 12 12 12 11 11 11 12 13 13 14 17 22 24 25 25 24 24 25 25 25 26 27 26 25 25 23 21 20 20 19 19 20 19 17 18 19 17 15 14 12 11 9 7 8 9 8 10 10 10 9 10 12 13 13 15 15 14
10 9 9 8 7 7 10 13 14 13 12 12 13 13 12 13 16 21 24 25 26 26 25 25 25 25 27 27 26 26 25 23 21 21 20 21 21 20 19 18 16 16 16 15 14 14 13 11 10 9 9 9 10 11 11 11 11 12 13 12 14 15 15
10 10 9 9 8 7 8 11 13 14 13 13 12 12 12 13 15 19 22 24 26 26 24 24 25 25 26 27 26 25 24 23 21 21 21 21 22 21 20 19 17 15 15 15 15 15 14 13 12 12 11 11 10 11 12 13 12 12 13 13 14 15 15
11 12 12 11 11 10 10 11 13 14 14 12 12 12 13 13 15 18 21 23 25 25 24 24 25 25 25 27 26 24 23 22 21 21 21 22 22 21 20 19 17 16 15 15 15 15 15 14 13 13 13 12 11 11 11 12 10 9 11 13 15 16 16
12 12 12 13 13 12 11 13 14 15 15 13 12 12 13 14 16 18 20 22 23 23 23 23 24 25 26 27 27 25 24 23 22 21 21 21 21 20 18 17 17 16 15 15 16 16 15 15 14 14 14 14 13 12 11 11 9 7 7 10 15 17 15
10 10 11 12 14 14 13 14 16 16 15 14 12 12 13 14 16 18 19 20 22 22 22 23 24 25 27 27 26 25 25 23 22 21 21 21 21 19 18 17 16 17 16 16 16 17 16 15 15 14 15 15 15 13 12 12 10 8 6 7 12 16 15
11 10 11 11 12 14 14 15 16 16 15 15 13 13 13 14 17 19 19 20 22 23 22 22 23 25 28 28 26 25 24 23 21 21 20 20 20 19 18 17 17 17 18 17 17 17 16 15 15 15 15 15 16 15 13 13 11 10 8 6 10 17 16
15 15 14 12 12 13 14 15 16 16 16 15 14 13 13 15 18 20 20 21 22 22 22 22 22 24 26 26 24 23 23 22 21 21 20 19 19 19 19 18 18 18 18 18 17 17 16 16 15 16 16 16 16 15 14 14 12 11 11 7 10 17 17
15 16 17 16 13 13 14 15 16 17 17 16 15 14 14 16 20 22 22 22 22 22 22 22 22 23 24 24 23 22 22 21 21 21 20 19 19 20 20 19 19 19 18 18 18 18 17 17 17 17 16 16 16 15 14 14 13 12 12 9 10 15 18
15 15 16 17 15 14 14 15 16 17 16 16 16 15 15 17 21 23 23 23 23 23 23 22 22 22 23 23 22 22 21 20 21 21 20 20 20 20 20 20 20 19 19 18 18 18 18 18 18 18 17 16 16 16 15 15 14 14 13 11 11 15 17
15 14 15 15 16 15 15 15 16 16 16 17 17 17 16 17 20 23 24 24 24 24 23 23 22 22 22 22 21 21 20 20 20 20 20 20 20 20 20 20 21 20 19 19 19 18 18 18 19 19 18 18 17 17 16 15 15 16 16 14 14 15 16
14 14 14 14 15 16 16 17 17 17 17 18 18 19 19 19 20 22 23 24 25 24 24 24 23 22 22 22 22 21 21 20 20 20 21 21 20 20 19 20 20 20 20 19 19 19 18 18 19 19 19 18 18 18 17 16 16 18 18 17 17 17 16
16 14 13 13 13 15 17 19 18 18 19 19 19 20 20 21 22 23 23 25 26 25 25 25 23 22 23 23 23 23 22 21 20 20 20 20 20 19 19 20 20 20 20 20 19 19 18 18 18 19 19 19 18 18 18 18 18 19 20 20 19 19 18
20 15 13 12 13 15 17 19 20 20 21 22 21 21 21 22 23 24 24 25 26 27 26 25 24 23 24 25 24 23 22 21 21 21 20 20 20 20 19 19 19 19 19 19 19 18 18 17 17 18 19 18 19 19 19 19 19 19 20 22 22 20 19
25 18 13 12 12 14 16 18 21 22 22 23 23 22 22 22 23 25 26 26 27 27 26 25 25 24 25 26 24 23 22 21 21 21 21 20 20 19 19 19 19 19 19 18 18 18 18 18 17 17 18 18 18 19 19 20 20 20 22 23 23 22 21
29 23 15 12 12 13 15 16 19 21 22 23 23 23 23 23 24 26 27 28 28 28 27 26 25 25 25 25 24 23 22 22 21 22 21 21 20 20 19 19 18 18 18 17 17 18 18 18 17 17 17 17 18 18 19 20 20 21 23 24 25 26 25
31 28 21 14 12 13 13 14 16 18 21 21 20 21 22 23 25 27 27 28 29 28 28 26 25 26 25 24 23 22 22 22 22 22 22 22 22 21 19 19 18 18 17 17 17 16 17 17 17 17 17 18 18 19 19 19 19 20 21 23 26 28 26
32 32 29 21 14 12 11 12 14 16 18 19 18 18 20 22 25 28 29 29 29 28 27 25 26 26 25 24 23 21 21 22 22 22 22 22 22 21 20 19 19 18 17 15 13 13 13 14 15 16 18 19 19 20 20 19 19 19 20 22 24 24 20
33 33 33 29 21 15 12 11 12 14 16 17 17 17 19 20 23 27 28 28 27 26 26 26 26 26 24 23 22 22 22 22 22 22 23 23 22 21 21 20 19 18 15 13 12 12 13 14 15 16 17 18 19 19 19 19 18 19 19 20 20 18 14
35 34 33 32 28 21 16 14 13 14 14 16 17 18 20 22 23 24 26 27 25 24 25 26 27 25 23 22 22 23 22 22 21 22 23 23 22 21 21 21 19 16 14 12 12 12 13 14 15 15 16 17 18 18 17 17 17 17 19 19 18 15 13
36 35 34 33 32 28 22 17 16 16 16 16 18 19 21 23 23 23 24 26 26 25 27 29 27 24 23 23 23 23 22 22 21 22 23 23 22 21 21 20 18 15 13 12 11 11 12 13 14 14 14 15 16 16 15 15 16 17 18 18 17 15 13
36 36 35 34 35 33 29 24 20 19 19 18 18 19 21 22 24 25 26 27 28 28 30 30 27 24 23 23 23 23 23 22 21 21 22 22 22 21 20 20 18 16 14 12 10 10 11 12 12 11 12 13 14 14 14 14 15 16 16 16 15 14 13
36 36 36 35 35 34 32 29 26 24 22 20 18 17 18 21 24 27 28 29 30 30 31 29 26 24 24 23 23 24 23 23 22 21 21 22 23 22 21 20 19 16 15 12 9 8 9 10 10 9 10 12 13 13 13 13 13 13 12 11 12 13 13
33 35 34 33 33 32 31 29 28 25 22 18 15 13 14 16 19 22 26 30 32 31 31 29 28 27 25 23 23 23 23 23 22 21 22 22 22 22 21 20 19 17 15 12 9 7 8 9 10 10 11 12 13 12 12 12 12 12 11 11 11 12 11
30 31 31 30 29 27 26 25 23 21 18 13 10 7 6 9 11 13 19 26 31 32 30 29 29 28 27 25 25 23 23 22 22 22 22 22 22 22 21 21 19 17 15 12 9 8 10 12 13 12 12 12 12 12 12 12 11 11 11 11 11 10 10
28 29 29 28 27 24 23 22 20 18 15 11 9 10 8 3 4 7 9 16 24 26 24 25 28 28 26 25 25 24 22 22 22 22 22 22 22 23 22 21 20 18 16 13 11 11 12 13 13 12 12 10 9 10 12 12 11 10 9 9 8 8 8
25 26 26 26 26 25 24 23 21 20 17 15 13 15 17 15 11 10 11 12 15 16 15 17 23 25 24 23 23 24 25 25 24 23 22 22 22 22 22 22 21 19 18 16 15 14 15 15 14 12 11 10 8 9 10 11 10 9 8 7 7 7 7
23 22 22 21 21 22 23 23 23 22 20 19 18 18 20 21 19 17 18 18 13 10 10 13 17 20 20 19 21 23 24 25 24 23 22 22 22 22 21 21 21 20 20 19 18 17 17 16 15 12 11 11 10 9 10 10 10 10 9 9 8 8 7
24 23 22 21 20 19 19 18 19 19 19 19 19 20 20 21 21 19 20 21 17 12 10 12 14 15 14 14 17 18 18 19 21 21 20 21 22 21 21 21 21 20 20 19 19 18 17 16 14 13 12 11 10 10 10 10 10 10 9 9 8 7 7
27 26 24 24 24 23 22 21 20 19 18 16 16 17 18 20 20 20 20 21 21 18 14 12 11 11 11 11 12 13 13 15 17 18 19 20 21 21 20 20 19 17 17 17 17 17 16 15 13 13 12 11 11 11 10 10 9 8 7 7 7 7 7

ECMWFFLT1_850_spd_072.txt.gz
Wind_Speed
9 11 13 13 14 15 16 15 15 17 18 19 22 24 25 27 27 27 27 27 27 27 28 28 27 26 24 23 22 22 21 20 21 22 20 20 20 18 18 19 18 14 10 9 9 8 8 9 11 13 12 12 14 15 14 13 12 11 11 9 8 8 7
7 9 10 12 13 13 14 14 13 16 17 18 21 21 21 23 25 25 24 25 25 25 28 29 29 27 25 23 22 22 21 21 22 23 22 21 20 18 18 18 16 14 11 10 9 8 8 9 10 13 14 14 15 15 16 15 13 12 11 10 9 8 8
8 8 9 10 11 12 13 13 13 14 14 15 17 17 17 19 23 26 23 20 20 22 26 29 29 28 25 23 22 21 21 22 23 24 24 22 21 19 18 16 16 14 13 12 11 9 9 9 9 11 15 15 15 15 16 17 14 12 11 11 10 9 9
10 10 11 10 10 11 13 12 12 11 10 10 11 11 13 14 18 23 21 16 16 20 24 27 27 27 25 24 23 22 22 23 24 24 24 23 21 18 16 16 15 15 14 13 12 11 10 10 9 10 13 14 13 13 15 16 15 12 11 11 11 9 9
11 12 12 11 9 10 12 12 11 10 8 7 8 8 9 11 13 16 17 17 18 21 24 26 26 26 26 25 25 25 24 24 24 24 23 23 22 19 17 16 15 15 14 14 12 11 10 10 9 10 11 12 12 12 12 14 14 13 12 11 11 11 11
12 11 10 10 9 9 11 11 11 10 8 8 8 8 9 10 12 14 16 18 20 20 22 24 26 26 25 26 26 27 26 24 25 25 23 23 22 20 18 17 17 16 15 14 12 11 11 11 10 10 11 12 13 12 11 13 13 12 12 12 11 12 12
12 11 10 9 9 9 10 11 11 9 8 7 8 9 10 11 13 14 15 17 19 20 21 23 25 26 26 26 26 26 25 24 25 25 23 22 22 21 20 19 17 17 17 16 14 12 12 11 11 11 11 12 12 12 11 12 13 13 13 13 13 13 13
11 11 11 10 9 10 11 11 11 9 8 8 8 10 11 12 14 15 16 17 18 20 21 22 25 26 26 26 26 25 24 25 25 24 23 24 23 22 21 18 16 17 18 17 16 15 14 12 12 12 12 13 12 12 11 11 13 14 13 13 14 15 14
8 9 10 10 10 10 11 11 11 10 9 8 10 11 11 12 14 15 17 18 18 19 19 21 24 26 26 26 25 24 23 25 25 23 23 24 22 22 21 19 17 17 18 18 17 16 15 13 12 12 13 14 13 13 12 12 14 14 14 13 14 16 16
7 8 9 10 10 10 11 11 12 11 9 9 10 11 12 12 14 16 18 19 19 19 19 21 24 26 27 27 25 23 22 24 25 25 26 25 22 22 22 21 20 19 19 21 21 19 17 15 14 14 14 14 13 13 12 13 14 15 15 15 14 15 16
7 8 9 10 10 11 11 12 12 11 9 9 9 11 12 13 14 16 17 19 20 21 21 23 25 26 27 28 27 24 22 24 26 27 27 25 23 22 21 20 21 21 21 23 24 23 21 19 16 15 15 14 13 13 12 13 15 14 15 16 14 14 16
8 8 9 11 11 11 11 11 12 12 11 10 10 11 12 13 15 16 17 18 20 21 22 24 25 26 26 27 27 26 25 25 27 27 27 25 24 23 22 21 20 20 21 22 23 24 25 22 19 16 15 15 14 14 13 12 13 14 14 15 15 14 15
10 10 11 11 11 12 13 13 12 12 12 12 12 12 13 14 14 16 17 18 21 22 22 24 26 26 26 26 26 27 27 27 26 26 26 26 24 22 24 24 22 22 23 22 20 21 23 23 20 16 15 15 14 14 14 13 12 12 13 13 14 14 15
10 11 12 12 11 12 13 13 14 14 13 13 13 13 14 15 15 16 17 18 21 22 22 24 26 27 26 26 27 27 28 28 27 26 26 26 25 25 25 24 24 25 25 23 20 19 20 20 18 17 16 15 15 15 15 14 12 12 12 12 13 14 15
11 11 11 12 12 13 12 13 15 15 14 13 14 14 15 15 16 16 17 19 20 21 22 24 25 26 26 26 28 28 28 29 28 27 25 25 25 25 24 23 26 26 24 22 20 19 18 18 18 18 17 16 16 16 15 15 14 13 13 13 13 14 16
11 11 11 11 11 13 14 14 14 15 16 15 15 15 15 14 16 17 17 19 21 22 23 24 25 25 24 25 26 27 27 28 28 27 25 25 24 22 21 23 26 25 22 21 20 19 18 18 18 18 17 17 16 15 15 16 15 14 13 13 14 15 17
11 11 12 12 11 12 13 14 15 15 17 18 17 17 16 15 16 17 17 19 22 23 24 25 26 25 24 24 25 26 27 27 29 28 27 26 25 23 23 25 26 24 23 22 22 20 19 19 19 19 18 17 17 16 15 16 16 15 13 13 15 15 17
12 11 11 12 12 12 13 14 16 16 18 19 18 17 17 17 17 17 18 20 22 23 25 26 26 26 24 24 25 26 26 28 30 29 27 26 25 22 23 25 25 23 23 22 22 21 20 20 20 19 18 18 17 16 16 16 16 16 15 15 15 15 16
16 14 12 12 12 12 13 14 16 17 18 18 16 16 17 18 18 18 19 20 22 23 24 25 26 27 26 25 26 26 26 27 29 27 25 25 23 21 22 23 23 23 22 22 22 22 21 21 20 19 19 18 17 17 17 17 17 17 17 16 16 16 16
19 18 15 14 13 13 13 14 15 17 18 18 17 16 17 18 19 20 20 20 21 21 22 25 26 27 27 26 25 25 27 27 27 26 26 25 23 22 22 21 21 23 23 22 22 22 21 21 21 20 19 18 18 18 17 17 17 17 18 19 18 18 17
18 19 17 15 14 14 14 14 15 15 16 17 17 17 18 18 20 22 21 21 21 21 21 23 26 27 28 26 24 25 27 27 26 26 25 23 21 21 20 20 20 21 22 23 23 22 21 22 21 20 20 20 20 19 19 18 18 19 20 21 20 19 18
17 19 19 16 14 14 14 14 15 14 14 15 16 16 17 17 19 21 21 20 22 23 22 21 25 29 28 26 25 26 27 27 27 25 24 23 23 22 22 23 23 22 22 24 24 23 23 22 21 20 21 22 22 22 22 21 20 21 22 22 22 20 20
17 18 20 19 17 14 14 14 14 13 13 14 15 16 17 18 18 19 21 21 22 24 24 23 25 28 29 27 26 26 28 29 28 25 23 23 24 24 23 24 24 24 24 23 22 23 23 23 21 21 21 22 22 22 23 22 21 23 23 24 24 22 20
19 18 19 21 20 17 15 15 14 13 12 13 15 16 18 19 19 19 20 20 21 23 24 25 26 26 27 27 27 28 31 30 27 24 22 23 23 23 23 23 23 24 24 22 22 22 23 23 23 23 22 21 20 21 21 21 22 23 23 22 21 22 22
19 19 19 21 22 21 19 17 15 13 12 13 14 16 17 18 19 20 20 20 20 22 23 25 27 26 26 27 28 30 31 29 27 25 23 23 22 22 23 22 22 23 23 22 22 21 22 22 22 22 22 21 21 21 21 22 21 21 21 19 18 21 24
20 20 21 22 23 25 24 21 18 15 13 12 13 15 16 16 17 18 19 19 19 20 21 24 27 27 27 27 29 32 31 27 25 26 25 23 21 20 20 20 21 23 22 21 22 21 21 20 20 20 20 19 20 20 21 22 21 21 20 16 14 18 21
20 21 24 23 24 27 29 27 24 20 17 14 13 13 15 15 15 15 16 17 17 17 21 25 28 29 29 29 30 33 31 25 23 25 25 23 22 20 20 20 22 23 21 21 22 21 19 18 17 17 17 18 20 21 21 22 22 22 22 17 13 16 18
20 22 25 26 27 30 32 31 29 27 24 21 17 15 14 14 14 14 16 18 19 19 21 24 27 30 31 31 31 32 29 26 25 26 25 23 22 21 22 23 23 22 21 21 20 18 16 16 16 17 18 20 21 21 21 21 21 21 23 20 17 16 16
20 22 25 27 28 31 33 33 33 31 30 27 24 21 17 14 13 14 15 18 20 21 21 22 25 30 31 31 31 31 29 28 28 26 25 24 22 22 23 23 21 20 21 21 18 16 15 15 16 17 19 20 21 20 19 20 20 21 22 22 20 17 15
21 22 24 25 26 30 32 33 33 32 30 28 26 24 21 18 15 13 14 16 18 21 21 21 22 27 30 30 32 33 32 30 29 27 25 24 23 23 23 22 21 21 22 19 16 14 13 14 15 17 18 19 19 19 20 20 21 22 21 21 19 16 15
20 21 21 21 23 26 29 31 31 31 29 26 24 21 19 18 17 15 14 14 15 18 21 21 20 24 28 30 33 35 33 32 31 28 25 24 23 23 23 23 24 24 21 18 15 14 12 12 14 16 17 18 19 19 20 20 20 20 20 19 18 16 16
19 19 19 19 19 21 23 26 28 29 28 27 24 19 16 15 15 14 13 13 13 15 19 20 20 23 27 31 35 36 34 33 31 27 25 25 25 24 25 26 26 24 21 18 16 15 12 12 14 15 16 16 17 18 18 17 17 17 17 17 17 16 16
18 18 18 18 17 18 19 22 24 25 26 27 26 23 20 17 15 13 11 11 11 11 14 17 19 21 25 30 33 32 31 31 28 25 25 26 25 25 26 27 25 23 21 19 17 16 14 13 14 14 14 14 15 15 16 15 14 14 15 15 15 15 15
18 18 18 19 18 17 17 19 20 21 22 23 24 25 24 23 21 18 14 10 8 7 8 11 13 16 21 27 29 27 26 26 24 24 25 25 23 23 25 26 25 25 23 21 19 17 15 14 14 14 14 14 12 12 14 15 14 13 13 14 14 14 14
20 20 20 20 19 18 16 16 18 19 19 19 21 22 24 25 25 24 22 18 14 10 6 3 4 7 13 20 22 22 22 22 22 21 21 20 20 20 23 26 25 24 23 22 20 18 17 16 16 15 14 14 12 12 14 15 15 14 14 14 14 15 14
21 21 21 21 21 20 19 17 16 18 19 19 19 19 20 22 23 25 25 23 22 20 16 10 7 4 7 12 14 14 14 13 14 15 16 18 20 21 24 25 24 23 23 23 21 19 19 18 16 14 13 12 12 13 15 16 15 14 13 12 12 11 10
21 21 21 22 22 22 21 19 17 17 18 19 19 19 19 19 20 22 24 24 24 24 22 20 17 14 11 12 12 9 7 7 8 10 14 18 20 22 24 24 23 23 23 22 21 21 21 19 17 15 15 15 15 16 16 15 14 13 13 12 12 11 10

ECMWFFLT1_850_spd_075.txt.gz
Wind_Speed
8 9 10 11 12 14 15 15 16 16 16 16 17 17 17 20 23 24 25 26 27 29 30 31 32 31 30 29 29 28 22 21 23 22 20 21 22 23 24 24 22 18 15 14 14 14 14 16 15 14 14 14 13 14 15 14 13 14 13 11 10 9 8
9 10 10 11 12 13 14 14 14 16 16 16 17 17 18 20 23 24 26 27 27 29 30 29 30 31 31 31 30 29 25 25 26 25 25 24 21 21 22 23 22 19 17 17 15 14 14 13 14 15 14 14 14 14 15 15 14 14 14 12 10 9 9
11 11 10 11 12 14 15 15 14 15 16 16 17 17 18 20 20 21 24 25 24 27 27 27 28 29 31 31 30 30 29 29 27 26 28 24 20 21 21 21 22 21 20 20 17 16 15 11 12 14 14 15 15 15 17 18 16 14 14 13 11 11 11
12 12 11 12 13 15 17 16 15 14 15 16 17 16 16 15 14 15 18 19 20 23 22 24 28 28 29 30 29 29 29 28 27 26 27 24 20 21 22 21 22 22 22 20 18 17 15 12 12 14 15 15 15 15 17 19 17 15 14 13 12 12 11
11 11 11 11 13 15 17 16 14 14 14 15 17 15 13 12 11 12 14 15 17 18 16 22 28 27 27 28 27 29 30 28 27 26 27 26 23 23 23 22 22 22 22 20 19 18 16 14 12 13 15 15 15 14 14 17 17 15 14 14 13 13 13
11 11 11 12 13 14 16 16 15 16 15 15 16 16 13 12 12 12 12 13 14 14 14 19 25 25 25 26 26 28 31 30 28 28 27 24 23 24 23 22 22 22 22 21 20 19 17 16 13 12 13 14 14 15 14 15 17 16 16 16 15 14 14
11 11 11 12 14 14 15 16 16 17 16 14 15 15 13 13 13 13 14 15 14 15 16 19 23 25 25 25 26 27 30 30 27 27 27 23 22 24 24 23 23 22 23 23 21 19 17 17 15 13 12 13 13 15 17 16 18 19 18 17 16 15 16
10 10 10 11 13 14 15 16 16 16 17 17 17 16 15 14 14 13 14 15 16 16 18 21 23 25 25 26 27 27 29 28 24 24 24 22 22 24 24 24 23 24 24 23 21 20 18 17 15 14 13 14 13 14 15 15 17 20 18 16 16 16 16
8 9 9 10 13 17 17 17 17 16 17 18 19 19 17 16 14 14 14 15 17 18 19 21 22 24 25 26 28 28 29 28 26 25 23 22 23 23 23 24 24 26 25 24 24 21 18 16 15 15 15 15 15 14 14 14 16 18 17 17 17 17 17
9 10 10 9 12 16 18 17 17 16 18 19 20 21 20 16 14 14 15 16 17 19 20 21 22 24 24 25 28 28 29 29 27 25 24 23 24 23 23 24 25 27 26 25 25 21 19 18 16 17 19 17 14 15 16 15 16 18 18 18 18 18 18
10 11 12 11 11 13 15 16 16 16 17 18 18 20 20 17 14 14 16 17 17 19 21 22 23 24 24 26 28 29 28 27 26 26 25 24 24 23 24 26 27 28 27 26 26 23 22 21 18 18 20 18 16 16 15 15 16 18 19 19 18 17 18
11 11 13 14 13 13 13 14 16 16 17 17 17 19 20 18 15 15 17 18 19 19 20 23 24 23 24 26 28 27 27 26 26 26 24 24 25 24 25 27 29 30 29 28 25 23 23 23 23 22 19 19 21 19 17 16 16 17 18 18 18 18 17
11 12 12 14 15 15 14 13 14 15 15 16 17 19 20 18 17 17 18 18 20 20 20 22 24 24 25 26 27 27 25 26 26 25 24 25 26 25 25 27 29 29 30 27 24 24 23 23 25 25 21 21 22 20 19 19 17 16 18 19 18 18 18
13 14 14 14 14 15 17 17 16 16 15 15 16 17 19 19 18 18 19 19 19 19 20 21 23 25 27 27 29 27 24 25 26 25 25 26 26 26 26 27 27 27 28 29 27 26 26 25 26 26 24 22 21 20 20 19 17 16 18 20 20 19 18
15 16 15 14 15 15 17 18 19 19 19 18 16 16 18 19 19 19 19 20 20 20 20 21 22 25 27 29 30 29 26 27 27 26 26 27 26 27 27 27 28 27 27 29 29 27 26 26 27 27 26 25 23 21 19 19 18 15 17 21 21 18 18
16 16 17 15 15 16 17 18 18 19 20 21 19 17 17 19 20 21 21 22 23 22 21 22 22 23 26 28 29 29 29 28 28 27 28 27 26 27 27 26 28 28 26 28 29 27 24 26 27 27 27 27 25 21 19 20 20 17 18 21 20 19 20
16 18 18 16 16 16 16 18 19 19 19 21 21 20 19 19 21 23 24 25 25 24 23 23 24 25 27 28 27 28 29 29 28 27 28 28 27 27 27 27 27 27 25 26 27 27 26 26 27 27 27 27 25 23 21 21 20 18 19 21 19 19 22
17 20 20 17 17 17 17 18 19 20 21 20 21 20 20 21 22 23 24 25 25 25 24 23 24 26 27 28 27 25 26 26 26 26 27 27 26 26 27 28 28 26 26 27 27 27 27 27 27 26 25 25 25 23 22 21 19 18 19 20 20 20 21
20 21 21 19 19 19 19 19 20 21 22 22 22 21 20 21 22 23 24 23 22 25 26 23 23 25 26 26 24 23 24 26 26 26 25 25 25 26 27 27 26 24 25 27 27 26 27 27 26 25 23 23 23 23 24 22 20 20 20 21 21 20 20
21 21 20 20 20 20 20 21 21 21 22 23 23 22 21 20 20 22 24 23 21 23 25 25 25 25 26 26 23 22 25 27 27 26 24 23 25 26 27 26 25 24 25 26 26 26 26 25 25 24 23 22 21 22 24 24 21 21 22 22 22 21 20
20 20 20 19 19 19 20 21 21 21 22 22 23 23 22 21 20 19 21 22 21 22 25 27 27 25 25 25 25 25 27 28 27 27 26 24 25 26 26 27 27 26 26 27 28 28 27 26 26 26 26 25 21 19 22 24 22 21 22 23 24 23 20
20 20 20 20 20 20 20 21 21 21 21 22 22 22 22 23 23 21 19 18 19 21 25 26 25 25 23 23 24 26 28 27 25 26 25 23 24 25 25 27 28 27 26 26 28 30 29 28 28 27 27 28 25 22 23 23 22 22 22 22 22 22 20
20 21 21 21 21 21 21 22 22 22 21 21 22 21 21 22 22 23 21 18 17 19 23 24 24 24 24 24 24 25 27 26 24 25 26 23 23 24 25 26 27 27 26 26 27 30 29 27 27 27 27 26 26 25 24 23 22 24 23 19 17 21 22
21 21 22 22 21 22 22 22 23 24 22 22 21 21 21 21 21 22 23 21 20 19 21 22 24 25 25 27 28 28 28 28 26 26 27 26 24 24 25 26 25 25 26 27 28 30 29 26 25 26 26 25 25 25 24 23 24 25 24 19 15 18 23
21 21 22 22 22 22 22 22 25 27 25 23 23 22 21 21 20 20 21 22 22 22 21 20 22 25 26 27 29 29 29 30 28 26 28 28 26 25 26 28 26 25 26 27 29 30 29 26 26 26 26 25 23 23 23 24 24 23 23 22 18 15 22
21 22 22 22 22 23 23 23 25 28 28 28 27 25 23 22 20 19 19 20 20 21 23 20 19 22 25 27 29 28 28 29 28 26 28 30 28 27 28 28 27 25 26 28 31 31 28 28 28 27 27 26 24 23 23 23 23 22 22 23 21 17 20
21 22 22 21 22 23 24 24 24 26 28 31 32 31 28 26 23 20 18 18 19 19 21 21 19 18 22 26 28 28 28 27 26 28 29 29 29 29 29 28 28 27 26 27 30 31 28 26 27 27 26 26 25 25 25 23 23 23 22 22 23 20 18
21 21 21 22 22 22 22 22 23 24 25 28 32 34 33 32 30 27 23 19 17 18 20 22 22 21 22 23 25 28 29 28 28 30 29 27 27 28 27 27 27 27 25 24 24 26 25 23 23 24 23 24 25 25 25 25 23 24 24 23 23 21 18
21 21 22 22 22 22 22 21 21 22 22 23 27 32 34 34 34 32 29 25 20 17 18 20 23 24 24 25 25 27 29 30 28 27 27 26 26 26 26 25 24 25 24 21 19 20 21 20 21 21 21 21 21 21 21 23 22 23 24 24 22 21 20
21 21 22 23 22 22 23 23 22 21 21 21 23 27 31 33 34 34 32 31 27 22 19 19 20 21 23 25 26 26 29 31 28 25 25 25 23 23 26 27 26 24 22 19 17 17 18 18 19 19 18 17 18 19 19 20 19 19 22 23 21 21 21
21 22 23 23 22 22 22 23 24 22 20 20 20 22 24 27 32 35 34 33 31 28 24 22 20 20 20 22 23 24 26 25 23 24 26 26 24 25 26 26 26 24 21 19 18 16 15 15 16 15 14 15 17 19 18 17 17 18 20 22 21 20 21
22 22 23 23 23 23 21 21 23 23 21 20 19 20 20 22 28 33 34 33 32 31 28 25 23 21 19 19 20 21 20 18 19 25 28 28 28 27 25 23 23 21 20 21 21 20 17 15 14 13 13 13 14 15 15 14 16 18 19 21 21 21 22
21 22 23 23 23 24 22 21 22 23 23 22 21 21 21 20 22 27 31 33 33 33 31 29 27 24 21 20 18 16 14 13 19 26 28 28 28 27 25 24 22 20 21 22 22 20 18 16 14 12 11 11 12 12 13 14 15 16 18 20 21 21 21
21 21 22 22 23 24 24 23 22 22 23 24 23 23 22 22 22 24 27 31 31 32 32 31 28 26 24 22 18 13 11 12 17 24 27 27 26 25 25 24 23 22 23 23 22 21 19 19 16 12 10 11 11 10 11 13 14 15 16 17 17 17 17
21 21 22 22 23 24 24 24 23 22 23 24 24 23 22 23 24 25 26 28 29 29 30 30 29 27 26 24 18 12 9 9 14 21 26 25 23 23 24 23 23 24 24 24 23 22 21 20 18 14 11 10 8 7 9 13 15 15 15 15 16 16 16
20 21 22 22 22 23 24 24 25 24 23 23 24 24 23 22 24 26 26 26 25 26 26 27 27 26 26 25 20 15 9 4 7 14 19 19 16 18 19 19 20 22 22 24 25 24 22 21 18 15 12 10 9 8 10 14 17 18 17 17 16 16 15
18 19 21 22 22 22 23 24 25 25 24 23 23 24 25 24 23 25 26 25 23 23 24 24 24 23 24 23 21 19 15 10 4 4 9 11 12 14 16 17 19 19 18 19 21 22 22 21 19 17 16 14 11 10 11 14 17 18 18 17 16 16 15